Flag for U.S.A. Weather past 2 weeks in Hollywood, Florida, U.S.A.

Now
78 °F

Overcast.


Feels Like: 80 °F
Forecast: 77 / 85 °F
Wind: 9 mph from Northeast

Location: Fort Lauderdale / Hollywood International Airport

Current Time: Apr 27, 2015 at 11:10:06 PM

Latest Report: Apr 27, 2015 at 9:53 PM


Visibility: 10 mi

Pressure: 29.85 "Hg

Humidity: 79%

Dew point: 71 °F

Location of HollywoodLocation

Historic Weather in Hollywood — Graph

°F

Hollywood temperature yesterday

Maximum temperature yesterday: 95 °F (at 1:53 PM)
Minimum temperature yesterday: 77 °F (at 1:53 AM)
Average temperature yesterday: 85 °F

Past Weeks' High & Low Weather Summary

 TemperatureHumidityPressure
High95 °F (Apr 26, 1:53 PM)97% (Apr 24, 2:53 AM)30.17 "Hg (Apr 24, 2:53 AM)
Low73 °F (Apr 27, 6:53 PM)46% (Apr 26, 1:53 PM)29.74 "Hg (Apr 26, 5:53 PM)
Average81 °F76%29.97 "Hg
* Reported Apr 12 9:53 PM — Apr 27 9:53 PM, Hollywood, Weather by CustomWeather, © 2015

Note: Actual official high and low records may vary slightly from our data, if they occured in-between our weather recording intervals... More about our weather records

Advertising

Hollywood weather history for previous 24 hours

 ConditionsComfort  
Time TempWeatherWind HumidityBarometerVisibility
9:53 PM
Mon, Apr 27
78 °FOvercast.9 mph79%29.85 "Hg10 mi
9:03 PM80 °FPartly cloudy.13 mph71%29.82 "Hg10 mi
8:53 PM81 °FMostly cloudy.13 mph74%29.81 "Hg10 mi
7:53 PM73 °FMostly cloudy.9 mph84%29.79 "Hg10 mi
6:53 PM73 °FThunderstorms. Partly sunny.22 mph97%29.78 "Hg7 mi
5:53 PM85 °FMostly cloudy.16 mph75%29.75 "Hg10 mi
4:53 PM87 °FPartly sunny.14 mph63%29.76 "Hg10 mi
3:53 PM89 °FPartly sunny.16 mph57%29.76 "Hg10 mi
2:53 PM92 °FPartly sunny.3 mph49%29.76 "Hg10 mi
1:53 PM92 °FBroken clouds.5 mph49%29.79 "Hg10 mi
12:53 PM91 °FPartly sunny.9 mph52%29.82 "Hg10 mi
11:53 AM90 °FPartly sunny.12 mph50%29.84 "Hg10 mi
10:53 AM88 °FPartly sunny.12 mph59%29.85 "Hg10 mi
9:53 AM86 °FPartly sunny.10 mph65%29.84 "Hg10 mi
8:53 AM82 °FPartly sunny.9 mph79%29.83 "Hg10 mi
7:53 AM79 °FBroken clouds.12 mph90%29.81 "Hg8 mi
6:53 AM78 °FPassing clouds.7 mph93%29.79 "Hg8 mi
5:53 AM78 °FPassing clouds.9 mph93%29.77 "Hg10 mi
4:53 AM78 °FClear.6 mph93%29.77 "Hg8 mi
3:53 AM79 °FClear.6 mph88%29.76 "Hg8 mi
2:53 AM79 °FClear.7 mph88%29.77 "Hg8 mi
1:53 AM79 °FClear.7 mph88%29.79 "Hg8 mi
12:53 AM80 °FClear.8 mph85%29.81 "Hg8 mi
11:53 PM
Sun, Apr 26
81 °FPassing clouds.8 mph79%29.82 "Hg10 mi
Weather by CustomWeather, © 2015

See weather overviewHow to use our weather pages